Time,TemperatureF,DewpointF,PressureIn,WindDirection,WindDirectionDegrees,WindSpeedMPH,WindSpeedGustMPH,Humidity,HourlyPrecipIn,Conditions,Clouds,dailyrainin,SoftwareType,DateUTC
2013-04-02 00:02:00,40.6,40.1,29.96,East,90,0.0,-999.0,98,-99.99,,,0.00,Acu-Link.com,2013-04-02 07:02:00,
2013-04-02 00:17:00,41.7,41.2,29.95,East,90,1.7,-999.0,98,-99.99,,,0.00,Acu-Link.com,2013-04-02 07:17:00,
2013-04-02 00:32:00,41.9,41.4,29.96,ESE,112,3.2,-999.0,98,-99.99,,,0.00,Acu-Link.com,2013-04-02 07:32:00,
2013-04-02 00:48:00,41.7,41.2,29.95,SW,225,0.0,-999.0,98,-99.99,,,0.00,Acu-Link.com,2013-04-02 07:48:00,
2013-04-02 01:03:00,41.0,40.5,29.95,South,180,3.2,-999.0,98,-99.99,,,0.00,Acu-Link.com,2013-04-02 08:03:00,
2013-04-02 01:18:00,41.4,40.9,29.95,SSE,157,3.7,-999.0,98,-99.99,,,0.00,Acu-Link.com,2013-04-02 08:18:00,
2013-04-02 01:33:00,40.8,40.3,29.95,ESE,112,0.0,-999.0,98,-99.99,,,0.00,Acu-Link.com,2013-04-02 08:33:00,
2013-04-02 01:49:00,40.5,40.0,29.96,East,90,0.0,-999.0,98,-99.99,,,0.00,Acu-Link.com,2013-04-02 08:49:00,
2013-04-02 02:04:00,39.9,39.4,29.95,East,90,0.0,-999.0,98,-99.99,,,0.00,Acu-Link.com,2013-04-02 09:04:00,
2013-04-02 02:19:00,39.6,39.1,29.95,North,0,1.7,-999.0,98,-99.99,,,0.00,Acu-Link.com,2013-04-02 09:19:00,
2013-04-02 02:34:00,39.2,38.7,29.94,ESE,112,4.2,-999.0,98,-99.99,,,0.00,Acu-Link.com,2013-04-02 09:34:00,
2013-04-02 02:49:00,39.6,39.1,29.94,SW,225,0.0,-999.0,98,-99.99,,,0.00,Acu-Link.com,2013-04-02 09:49:00,
2013-04-02 03:04:00,38.5,38.0,29.94,East,90,0.0,-999.0,98,-99.99,,,0.00,Acu-Link.com,2013-04-02 10:04:00,
2013-04-02 03:20:00,38.1,37.6,29.94,ENE,67,0.0,-999.0,98,-99.99,,,0.00,Acu-Link.com,2013-04-02 10:20:00,
2013-04-02 03:35:00,37.6,37.1,29.95,East,90,0.0,-999.0,98,-99.99,,,0.00,Acu-Link.com,2013-04-02 10:35:00,
2013-04-02 03:50:00,37.0,36.5,29.94,NNE,22,0.0,-999.0,98,-99.99,,,0.00,Acu-Link.com,2013-04-02 10:50:00,
2013-04-02 04:05:00,37.0,36.5,29.94,NNW,337,0.0,-999.0,98,-99.99,,,0.00,Acu-Link.com,2013-04-02 11:05:00,
2013-04-02 04:20:00,36.7,36.2,29.94,NNE,22,0.0,-999.0,98,-99.99,,,0.00,Acu-Link.com,2013-04-02 11:20:00,
2013-04-02 04:35:00,36.7,36.2,29.94,NE,45,0.0,-999.0,98,-99.99,,,0.00,Acu-Link.com,2013-04-02 11:35:00,
2013-04-02 04:50:00,36.7,36.2,29.96,North,0,1.7,-999.0,98,-99.99,,,0.00,Acu-Link.com,2013-04-02 11:50:00,
2013-04-02 05:05:00,36.5,36.0,29.95,NNE,22,0.0,-999.0,98,-99.99,,,0.00,Acu-Link.com,2013-04-02 12:05:00,
2013-04-02 05:20:00,36.3,35.8,29.96,North,0,0.0,-999.0,98,-99.99,,,0.00,Acu-Link.com,2013-04-02 12:20:00,
2013-04-02 05:36:00,36.3,35.8,29.97,ENE,67,0.0,-999.0,98,-99.99,,,0.00,Acu-Link.com,2013-04-02 12:36:00,
2013-04-02 05:51:00,36.5,36.0,29.97,NE,45,0.0,-999.0,98,-99.99,,,0.00,Acu-Link.com,2013-04-02 12:51:00,
2013-04-02 06:21:00,36.7,36.2,29.98,NNE,22,0.0,-999.0,98,-99.99,,,0.00,Acu-Link.com,2013-04-02 13:21:00,
2013-04-02 06:51:00,36.7,36.2,29.97,East,90,0.0,-999.0,98,-99.99,,,0.00,Acu-Link.com,2013-04-02 13:51:00,
2013-04-02 07:06:00,37.6,37.1,29.97,NE,45,0.0,-999.0,98,-99.99,,,0.00,Acu-Link.com,2013-04-02 14:06:00,
2013-04-02 07:36:00,40.3,39.8,29.99,ESE,112,0.0,-999.0,98,-99.99,,,0.00,Acu-Link.com,2013-04-02 14:36:00,
2013-04-02 07:52:00,41.0,40.5,29.98,ESE,112,2.2,-999.0,98,-99.99,,,0.00,Acu-Link.com,2013-04-02 14:52:00,
2013-04-02 08:37:00,45.0,44.5,29.99,North,0,0.0,-999.0,98,-99.99,,,0.00,Acu-Link.com,2013-04-02 15:37:00,
2013-04-02 08:52:00,46.2,45.7,29.99,West,270,3.2,-999.0,98,-99.99,,,0.00,Acu-Link.com,2013-04-02 15:52:00,
2013-04-02 09:07:00,47.8,47.3,30.00,WNW,292,0.0,-999.0,98,-99.99,,,0.00,Acu-Link.com,2013-04-02 16:07:00,
2013-04-02 09:37:00,50.5,43.9,30.00,North,0,0.0,-999.0,78,-99.99,,,0.00,Acu-Link.com,2013-04-02 16:37:00,
2013-04-02 09:52:00,51.8,43.1,30.00,NNW,337,2.2,-999.0,72,-99.99,,,0.00,Acu-Link.com,2013-04-02 16:52:00,
2013-04-02 10:07:00,55.6,41.9,30.00,NE,45,2.7,-999.0,60,-99.99,,,0.00,Acu-Link.com,2013-04-02 17:07:00,
2013-04-02 10:23:00,59.4,41.3,30.00,SSE,157,1.7,-999.0,51,-99.99,,,0.00,Acu-Link.com,2013-04-02 17:23:00,
2013-04-02 10:38:00,60.1,39.8,30.00,West,270,0.0,-999.0,47,-99.99,,,0.00,Acu-Link.com,2013-04-02 17:38:00,
2013-04-02 10:53:00,64.2,40.0,30.00,WSW,247,0.0,-999.0,41,-99.99,,,0.00,Acu-Link.com,2013-04-02 17:53:00,
2013-04-02 11:23:00,65.7,35.8,29.99,NNE,22,2.7,-999.0,33,-99.99,,,0.00,Acu-Link.com,2013-04-02 18:23:00,
2013-04-02 11:38:00,66.4,34.0,29.99,SW,225,6.8,-999.0,30,-99.99,,,0.00,Acu-Link.com,2013-04-02 18:38:00,
2013-04-02 12:08:00,67.5,29.4,29.99,WSW,247,5.3,-999.0,24,-99.99,,,0.00,Acu-Link.com,2013-04-02 19:08:00,
2013-04-02 12:23:00,69.8,30.3,29.99,West,270,5.3,-999.0,23,-99.99,,,0.00,Acu-Link.com,2013-04-02 19:23:00,
2013-04-02 12:39:00,70.0,29.4,29.98,SE,135,0.0,-999.0,22,-99.99,,,0.00,Acu-Link.com,2013-04-02 19:39:00,
2013-04-02 12:54:00,69.3,27.7,29.98,NE,45,4.7,-999.0,21,-99.99,,,0.00,Acu-Link.com,2013-04-02 19:54:00,
2013-04-02 13:09:00,70.3,28.5,29.98,SW,225,3.2,-999.0,21,-99.99,,,0.00,Acu-Link.com,2013-04-02 20:09:00,
2013-04-02 13:24:00,70.3,27.3,29.96,NNE,22,4.7,-999.0,20,-99.99,,,0.00,Acu-Link.com,2013-04-02 20:24:00,
2013-04-02 13:39:00,71.2,28.1,29.96,North,0,4.7,-999.0,20,-99.99,,,0.00,Acu-Link.com,2013-04-02 20:39:00,
2013-04-02 13:54:00,71.8,24.6,29.96,SE,135,3.7,-999.0,17,-99.99,,,0.00,Acu-Link.com,2013-04-02 20:54:00,
2013-04-02 14:09:00,70.3,23.4,29.98,WNW,292,5.8,-999.0,17,-99.99,,,0.00,Acu-Link.com,2013-04-02 21:09:00,
2013-04-02 14:24:00,71.2,21.2,29.98,West,270,4.2,-999.0,15,-99.99,,,0.00,Acu-Link.com,2013-04-02 21:24:00,
2013-04-02 14:39:00,72.9,20.9,29.96,NNW,337,6.8,-999.0,14,-99.99,,,0.00,Acu-Link.com,2013-04-02 21:39:00,
2013-04-02 14:55:00,72.0,16.6,29.96,South,180,3.2,-999.0,12,-99.99,,,0.00,Acu-Link.com,2013-04-02 21:55:00,
2013-04-02 15:10:00,74.1,14.1,29.96,WSW,247,4.2,-999.0,10,-99.99,,,0.00,Acu-Link.com,2013-04-02 22:10:00,
2013-04-02 15:25:00,72.9,20.9,29.94,SW,225,3.2,-999.0,14,-99.99,,,0.00,Acu-Link.com,2013-04-02 22:25:00,
2013-04-02 15:40:00,69.4,19.8,29.94,SSW,202,6.8,-999.0,15,-99.99,,,0.00,Acu-Link.com,2013-04-02 22:40:00,
2013-04-02 15:55:00,70.9,17.6,29.95,West,270,2.7,-999.0,13,-99.99,,,0.00,Acu-Link.com,2013-04-02 22:55:00,
2013-04-02 16:10:00,67.1,19.4,29.95,East,90,4.7,-999.0,16,-99.99,,,0.00,Acu-Link.com,2013-04-02 23:10:00,
2013-04-02 16:25:00,65.7,15.2,29.95,ENE,67,1.7,-999.0,14,-99.99,,,0.00,Acu-Link.com,2013-04-02 23:25:00,
2013-04-02 16:40:00,69.1,16.2,29.94,NNW,337,4.7,-999.0,13,-99.99,,,0.00,Acu-Link.com,2013-04-02 23:40:00,
2013-04-02 16:55:00,68.0,13.5,29.93,South,180,4.2,-999.0,12,-99.99,,,0.00,Acu-Link.com,2013-04-02 23:55:00,
2013-04-02 17:11:00,67.8,15.2,29.94,South,180,2.7,-999.0,13,-99.99,,,0.00,Acu-Link.com,2013-04-03 00:11:00,
2013-04-02 17:56:00,67.8,16.9,29.94,West,270,0.0,-999.0,14,-99.99,,,0.00,Acu-Link.com,2013-04-03 00:56:00,
2013-04-02 18:26:00,64.2,23.5,29.94,South,180,0.0,-999.0,21,-99.99,,,0.00,Acu-Link.com,2013-04-03 01:26:00,
2013-04-02 18:41:00,61.0,26.8,29.94,South,180,0.0,-999.0,27,-99.99,,,0.00,Acu-Link.com,2013-04-03 01:41:00,
2013-04-02 18:56:00,58.5,28.0,29.95,SSW,202,0.0,-999.0,31,-99.99,,,0.00,Acu-Link.com,2013-04-03 01:56:00,
2013-04-02 19:11:00,56.1,41.1,29.95,NNW,337,0.0,-999.0,57,-99.99,,,0.00,Acu-Link.com,2013-04-03 02:11:00,
2013-04-02 19:42:00,51.1,44.1,29.97,North,0,0.0,-999.0,77,-99.99,,,0.00,Acu-Link.com,2013-04-03 02:42:00,
2013-04-02 19:57:00,49.3,47.9,29.96,NNE,22,0.0,-999.0,95,-99.99,,,0.00,Acu-Link.com,2013-04-03 02:57:00,
2013-04-02 20:27:00,48.0,39.8,29.97,NNE,22,0.0,-999.0,73,-99.99,,,0.00,Acu-Link.com,2013-04-03 03:27:00,
2013-04-02 20:57:00,48.4,37.6,29.98,ESE,112,0.0,-999.0,66,-99.99,,,0.00,Acu-Link.com,2013-04-03 03:57:00,
2013-04-02 21:12:00,48.7,39.4,29.99,NNE,22,2.2,-999.0,70,-99.99,,,0.00,Acu-Link.com,2013-04-03 04:12:00,
2013-04-02 21:27:00,47.8,41.6,30.00,North,0,0.0,-999.0,79,-99.99,,,0.00,Acu-Link.com,2013-04-03 04:27:00,
2013-04-02 21:58:00,45.7,42.6,30.02,NNE,22,0.0,-999.0,89,-99.99,,,0.00,Acu-Link.com,2013-04-03 04:58:00,
2013-04-02 22:13:00,44.4,37.6,30.01,SE,135,0.0,-999.0,77,-99.99,,,0.00,Acu-Link.com,2013-04-03 05:13:00,
2013-04-02 22:28:00,43.5,39.9,30.01,NNE,22,0.0,-999.0,87,-99.99,,,0.00,Acu-Link.com,2013-04-03 05:28:00,
2013-04-02 22:43:00,44.1,37.4,30.01,North,0,0.0,-999.0,77,-99.99,,,0.00,Acu-Link.com,2013-04-03 05:43:00,
2013-04-02 22:58:00,43.3,36.9,30.01,East,90,0.0,-999.0,78,-99.99,,,0.00,Acu-Link.com,2013-04-03 05:58:00,
2013-04-02 23:13:00,42.3,41.8,30.01,NNE,22,0.0,-999.0,98,-99.99,,,0.00,Acu-Link.com,2013-04-03 06:13:00,
2013-04-02 23:29:00,41.9,37.4,30.02,North,0,0.0,-999.0,84,-99.99,,,0.00,Acu-Link.com,2013-04-03 06:29:00,
2013-04-02 23:44:00,42.4,36.7,30.01,ENE,67,0.0,-999.0,80,-99.99,,,0.00,Acu-Link.com,2013-04-03 06:44:00,
2013-04-02 23:59:00,43.5,35.1,30.01,NNE,22,0.0,-999.0,72,-99.99,,,0.00,Acu-Link.com,2013-04-03 06:59:00,